User: anonymous   Login
Location: Observatoire
(46.1952°N, 5.3391°E)
Time: 06:06:34
(UTC+02:00)
Language:

CUTE-I - Orbit

View from above orbital plane
View from above orbital plane
View from above satellite
View from above satellite

Ground track
Ground track

The orbit data is extracted from the following two-line orbital elements,

1 27844U 03031E   24106.52118909  .00000716  00000-0  33621-3 0  9992
2 27844  98.6797 114.4233 0009076 333.3747  26.6964 14.23161164 78875
Epoch (UTC): 15 April 2024 12:30:30
Eccentricity: 0.0009076
inclination: 98.6797°
perigee height: 808 km
apogee height: 821 km
right ascension of ascending node: 114.4233°
argument of perigee: 333.3747°
revolutions per day: 14.23161164
mean anomaly at epoch: 26.6964°
orbit number at epoch: 7887

The dashed part of the orbit path shows where the satellite is in the earth's shadow,  

DLR